Starlink 32879

operational
NORAD ID: 62957 Int'l Des: 2025-029 Owner: SPXS Country: US Constellation: starlink
LEOCIRCULAR

关于 Starlink 32879

正在加载描述...

实时位置

正在加载3D地球...

即将过境

高度历史

Altitude vs Time

uPlot chart will show altitude changes over time

两行轨道根数

1 62957U 25029K 25307.82073449 .00043762 00000-0 14813-2 0 9992
2 62957 53.1603 97.3088 0000383 102.7009 257.4035 15.30192202 42048
Epoch: Nov 3, 2025 • Age: 5 hours

当前状态

高度 475.7 km
速度 7.63 km/s
星下点 20.64°N, 61.46°E
发射日期 Feb 11, 2025
运行时间 0.7 years
类型 internet

技术详情

分类 Payload
质量 730.00 kg
干质量 700.00 kg
总质量 730.00 kg
长度 0.30 m
直径 4.10 m
跨度 29.00 m
形状 Box + pan
制造商 SPXS
平台类型 Starlink V2M
阶段状态 In Orbit
所有者/国家 SPXS/US

大型星座

Loading constellations...